Location: Chevoux
(46.3801°N, 4.9476°E)
Time: 12:42:27
(UTC+00:00)

NOSS 3-1 (C) - Pass Details

Date: 28 January 2021
Orbit: 723 x 1485 km, 63.3° (Epoch: 03 March)

Event Time Altitude Azimuth Distance (km) Brightness Sun altitude
Rises 17:01:47 0° 320° (NW) 3,885 6.9 -4.5°
Reaches altitude 10° 17:04:17 10° 322° (NW) 3,028 6.3 -4.9°
Maximum altitude 17:11:43 77° 49° (NE) 1,326 4.1 -6.1°
Drops below altitude 10° 17:20:25 10° 136° (SE) 3,520 6.1 -7.5°
Sets 17:23:31 0° 137° (SE) 4,547 6.7 -8.0°
